Temperature
3 3 3 3 3 4 4 4 4 4 4 4 4 4 5 5 5 5 6 6 6 6 6 6 7 7 7 8 8 8 8 8 8 8 8 8 8 8 8 8 8 7 7
3 3 3 3 3 3 3 4 3 4 4 4 4 4 5 5 5 5 5 6 6 6 6 6 7 7 7 7 8 8 8 8 9 8 8 8 8 8 8 8 8 7 7
2 2 2 3 3 3 3 3 3 3 3 4 4 4 5 5 5 5 5 6 6 6 6 6 6 7 7 7 7 8 8 8 8 8 8 8 8 8 8 7 7 7 7
2 2 2 2 2 3 3 3 3 3 3 4 4 4 5 5 5 5 5 5 5 6 6 6 6 6 7 7 7 7 8 8 8 8 8 7 7 7 7 7 7 7 6
2 2 2 2 2 2 2 2 2 3 3 3 4 4 4 5 5 5 5 5 5 5 6 6 6 6 7 7 7 7 7 8 8 8 7 7 7 7 7 7 7 6 6
2 2 2 2 2 2 2 2 2 3 3 3 4 4 4 5 5 5 5 5 5 5 5 6 6 6 7 7 7 7 8 8 8 8 7 7 7 7 7 7 6 6 5
1 2 2 2 2 2 2 2 2 2 3 3 3 4 4 5 5 5 5 5 5 5 5 6 6 6 7 7 7 7 7 7 8 8 8 8 8 7 7 6 6 6 5
1 2 2 2 1 2 2 2 2 2 3 3 3 4 4 4 5 5 5 5 5 5 5 6 6 6 6 7 7 7 7 7 7 8 8 8 8 7 7 7 6 5 5
1 1 1 1 1 1 2 2 2 2 3 3 3 3 4 4 4 5 5 4 5 5 5 6 6 6 6 6 6 6 7 7 7 7 7 7 7 7 6 6 5 5 4
1 1 1 1 1 1 1 2 2 2 2 3 3 3 3 4 4 4 4 4 4 5 5 5 6 6 6 6 7 7 6 6 6 6 6 6 6 6 6 5 5 5 4
1 1 1 1 1 1 1 2 2 2 2 2 3 3 3 4 4 4 4 4 4 4 5 5 5 6 6 6 6 7 7 6 6 6 6 6 5 5 5 5 5 4 4
0 1 1 1 1 1 1 1 2 2 2 2 2 2 3 3 3 4 4 4 4 5 5 5 5 6 6 6 6 6 6 6 6 6 5 5 5 5 5 4 4 4 4
0 0 0 1 1 1 1 1 1 1 2 2 2 2 2 3 3 3 4 4 5 5 5 5 5 5 6 6 6 6 6 6 6 5 5 5 5 5 4 4 3 3 3
-1 -0 -0 0 0 0 0 0 1 1 1 1 1 1 2 2 2 3 3 4 4 5 5 5 5 5 5 5 5 5 5 5 5 5 5 4 4 4 4 4 3 3 3
-1 -1 -1 -1 -0 -0 0 0 0 1 1 1 1 1 1 2 2 2 3 3 4 4 4 4 4 4 5 4 5 5 5 5 4 4 4 4 4 3 3 3 3 3 3
-2 -1 -1 -1 -1 -1 -0 -0 0 1 1 1 1 1 1 2 2 2 3 3 3 4 4 4 4 4 4 4 4 4 4 4 4 4 4 4 4 3 3 3 3 2 2
-2 -2 -2 -1 -1 -1 -1 -1 -1 0 1 1 1 1 1 1 2 2 3 3 3 3 3 3 4 4 4 4 4 4 4 4 4 4 4 4 3 3 3 2 2 2 2
-2 -2 -2 -2 -2 -2 -1 -1 -1 -1 -0 0 1 1 1 2 2 2 2 3 3 3 3 3 3 4 4 4 4 4 4 3 3 3 3 3 3 3 3 2 2 2 1
-2 -2 -2 -2 -2 -2 -2 -1 -1 -1 -1 -1 -0 0 1 1 1 2 2 2 3 3 3 3 3 4 4 4 4 4 4 3 3 3 3 3 3 3 2 2 2 1 1
-2 -2 -2 -2 -2 -2 -2 -2 -2 -1 -1 -1 -1 -0 0 1 1 1 2 2 2 2 3 3 3 3 4 4 4 4 3 3 3 3 3 3 3 2 2 2 2 1 1
-3 -3 -3 -3 -3 -3 -2 -2 -2 -2 -1 -1 -1 -0 -0 0 0 1 1 2 2 2 2 3 3 3 4 4 4 3 3 3 3 3 3 2 2 2 2 2 1 1 1
-3 -3 -3 -3 -3 -3 -3 -2 -2 -2 -1 -1 -1 -1 -0 -0 0 0 1 1 1 2 2 2 3 3 3 3 3 3 3 3 3 3 2 2 2 2 2 1 1 0 0
-3 -3 -3 -3 -3 -3 -3 -2 -2 -2 -2 -1 -1 -1 -1 -0 -0 0 0 0 1 1 2 2 2 3 3 3 3 3 3 3 3 3 3 2 2 2 1 1 1 0 -0
-3 -3 -3 -3 -3 -3 -3 -2 -2 -2 -2 -2 -2 -1 -1 -1 -1 -0 -0 0 1 1 2 2 2 2 2 3 3 3 3 3 3 3 3 2 2 2 1 1 0 -0 -0
-4 -3 -3 -3 -3 -3 -3 -3 -2 -2 -2 -2 -2 -1 -1 -1 -1 -1 -0 0 0 1 1 2 2 2 2 2 2 2 2 2 2 2 2 2 2 2 1 1 -0 -1 -1
-4 -4 -4 -3 -3 -3 -3 -3 -3 -3 -2 -2 -2 -1 -1 -1 -1 -1 -0 -0 0 1 1 1 1 2 2 2 2 2 2 2 2 2 2 2 1 1 1 0 -0 -1 -1
Wind_Speed
13 13 13 13 13 12 11 11 12 12 12 13 13 14 14 15 14 14 14 15 16 15 14 15 15 13 10 9 9 9 8 8 7 5 4 7 9 10 9 9 9 10 10
13 13 13 12 12 11 11 11 11 12 12 12 13 13 14 14 14 15 16 15 16 16 15 15 15 12 13 11 10 10 9 8 8 8 6 6 8 10 9 9 8 8 8
13 13 13 13 12 11 11 10 10 11 12 12 12 12 13 13 14 15 15 15 15 15 15 15 16 15 14 11 12 10 8 7 8 8 7 5 5 7 8 7 7 6 6
13 13 13 13 13 11 9 9 10 10 11 11 11 11 11 12 14 14 14 14 14 14 14 15 16 16 15 14 12 12 10 9 9 9 8 7 6 7 7 7 6 5 5
13 13 13 13 12 10 9 9 9 10 10 10 9 9 10 10 11 12 12 12 13 13 13 15 16 16 16 14 12 12 12 10 9 9 8 7 7 8 8 6 7 6 5
14 14 13 12 11 10 9 9 9 9 9 8 7 8 9 8 10 12 11 11 11 12 12 13 14 14 14 15 15 15 14 14 12 10 8 10 10 9 9 8 7 6 4
13 13 12 12 11 10 9 9 9 9 8 8 7 7 8 7 10 12 11 10 11 11 11 11 10 11 13 12 13 13 12 13 13 12 12 11 11 11 11 11 9 7 4
13 12 11 10 10 10 9 8 8 8 7 7 7 6 6 7 9 10 9 9 9 10 11 12 12 12 11 12 12 12 11 11 11 10 10 10 10 11 10 9 9 6 5
12 12 10 9 9 9 10 9 8 7 6 6 6 6 6 6 7 7 7 6 7 8 9 10 12 12 13 14 13 12 10 8 7 8 8 9 12 13 12 9 9 6 4
12 12 10 9 9 9 10 10 8 7 6 6 6 6 5 5 5 6 5 5 6 6 7 9 12 13 15 15 14 13 13 10 10 9 9 10 10 12 12 9 9 8 5
12 11 9 9 9 9 9 8 8 6 5 6 7 6 5 4 4 5 5 4 5 6 6 7 8 14 15 14 13 12 13 12 11 10 9 8 7 7 6 5 4 5 5
11 11 10 10 9 8 9 8 7 5 5 5 4 5 3 2 3 3 3 4 4 6 6 6 8 13 13 13 12 14 16 14 10 10 9 8 7 6 5 5 6 6 4
11 10 9 9 8 7 7 7 6 5 4 4 3 3 3 2 1 1 1 2 2 4 5 8 10 12 12 11 15 18 15 11 10 10 9 7 6 7 7 7 8 9 9
10 10 9 8 8 8 6 5 5 4 4 4 3 3 3 3 2 1 1 0 2 4 5 8 10 12 11 12 13 12 9 9 10 9 8 8 7 7 7 6 6 7 6
10 9 8 8 8 7 7 6 6 5 5 5 4 4 3 4 4 4 3 2 2 4 5 5 6 8 8 8 8 8 8 9 9 8 9 9 8 7 6 6 6 5 4
8 8 7 6 6 6 6 6 6 6 8 8 7 6 5 5 6 5 3 2 4 6 5 7 7 8 9 9 9 8 8 8 9 9 9 9 9 8 7 6 5 5 6
8 8 6 6 6 5 5 5 6 6 5 5 5 5 5 5 4 2 1 3 4 6 5 7 7 8 8 8 8 8 8 8 8 9 9 9 9 9 8 7 7 6 7
8 7 7 6 6 5 5 5 4 4 5 4 3 3 3 3 2 1 2 3 4 4 5 7 7 7 8 8 8 8 9 9 9 9 9 9 9 9 8 7 7 7 7
7 6 6 5 5 5 4 4 4 4 4 4 3 3 3 2 1 1 2 3 5 5 5 6 6 7 7 7 7 8 9 9 9 9 9 9 9 9 8 7 7 10 8
6 8 7 5 5 4 4 4 4 3 4 3 3 3 3 2 1 1 1 2 3 4 5 5 6 6 7 7 8 8 9 9 10 9 9 9 8 8 9 9 9 9 7
6 6 7 5 4 4 4 4 4 3 3 3 3 3 3 2 1 0 1 1 2 4 4 5 6 6 7 7 7 9 9 9 9 9 8 9 9 8 8 8 8 8 8
5 5 4 4 4 4 4 4 4 3 3 4 3 3 3 1 0 0 1 1 1 3 4 4 5 5 6 7 8 9 9 9 9 9 9 9 9 9 8 8 8 8 8
5 5 4 4 4 5 5 4 3 3 3 3 3 2 1 1 0 0 1 1 2 3 3 4 5 5 5 5 6 7 9 9 9 10 11 10 9 9 9 9 10 10 9
5 5 4 4 4 4 4 4 3 3 3 3 2 1 1 1 0 0 1 1 2 3 3 3 5 6 7 6 6 6 7 8 10 10 12 12 11 9 9 10 10 10 10
5 5 4 4 4 4 4 4 3 3 2 2 2 1 1 1 1 1 1 2 3 3 4 3 4 5 7 7 7 7 10 13 12 11 11 11 11 11 11 11 10 10 10
5 5 4 4 4 4 3 3 3 2 2 2 2 2 1 1 1 1 2 2 3 3 3 3 5 6 8 7 9 11 13 15 16 16 12 11 11 11 11 10 12 11 11
Wind_Direction
304 300 298 295 290 277 272 269 267 263 258 250 247 244 236 230 228 229 224 219 218 218 215 216 214 210 208 207 206 207 209 201 200 202 193 181 178 182 176 181 183 185 185
306 302 300 295 294 281 276 274 270 266 259 252 248 247 239 230 228 229 222 218 218 215 213 213 212 206 205 205 203 203 203 199 192 188 187 175 184 181 177 177 177 182 182
305 303 301 299 297 287 282 280 276 270 263 258 250 247 241 232 228 229 221 217 217 214 212 212 209 203 203 203 200 200 197 190 182 180 183 174 167 169 167 168 170 171 169
304 303 301 301 299 290 285 282 282 278 273 265 254 248 242 235 229 227 221 217 215 214 213 212 208 205 203 200 198 196 191 184 175 171 171 167 162 165 165 168 170 173 171
305 304 301 301 300 289 282 281 281 281 277 271 259 251 244 234 225 222 218 215 214 213 213 210 208 205 203 200 196 191 187 184 178 173 175 171 170 169 178 175 175 165 168
305 305 304 304 304 300 285 284 283 286 280 276 264 260 248 235 227 223 221 213 212 212 211 206 203 199 197 195 196 193 191 188 184 182 186 183 185 181 174 169 162 164 178
304 305 305 304 303 304 297 283 282 284 280 275 271 269 254 245 225 216 221 215 212 214 207 199 198 197 193 191 186 183 193 194 192 191 189 188 185 180 173 171 173 173 169
305 306 307 305 303 303 303 293 285 283 274 276 275 271 259 245 222 213 216 215 212 213 204 196 194 193 192 184 180 185 192 193 191 192 193 187 178 170 172 170 160 133 103
307 306 304 303 302 300 300 295 294 288 280 280 275 272 262 247 225 216 222 212 211 212 201 195 189 187 179 172 175 178 177 176 159 150 151 148 144 148 150 144 147 148 149
307 307 304 301 297 295 296 295 294 287 277 279 278 277 262 245 231 222 232 212 210 207 193 187 182 180 176 174 176 174 173 171 159 147 138 133 141 142 146 158 163 163 152
305 305 302 299 296 296 297 294 292 289 281 284 286 281 266 244 233 225 235 216 212 198 184 182 182 174 176 178 176 176 170 162 157 152 146 141 138 141 143 138 145 163 162
306 306 303 301 301 301 302 302 300 298 289 286 286 292 279 251 244 241 243 242 226 195 188 184 178 169 171 172 171 160 151 148 150 150 149 148 145 142 130 113 99 84 84
308 308 307 309 308 308 304 303 304 300 291 286 289 288 296 293 282 251 242 256 216 192 179 170 169 164 161 162 155 149 149 151 152 152 154 152 143 137 126 111 97 92 81
308 308 310 310 310 310 308 303 302 301 299 298 289 287 294 294 286 281 270 118 136 144 148 145 150 152 151 146 149 151 154 155 154 152 147 140 134 135 136 133 130 123 104
307 307 309 308 305 308 307 303 298 291 283 288 287 277 272 279 280 277 273 232 184 159 151 150 151 152 154 153 152 153 151 149 145 143 143 142 141 139 138 138 137 130 122
305 308 309 308 306 305 309 314 312 293 302 297 292 288 285 280 289 297 282 226 176 160 151 156 158 157 156 156 156 153 150 151 151 148 148 147 148 148 143 141 139 134 130
296 298 301 302 300 300 303 307 315 324 325 308 300 303 288 289 290 283 188 152 158 158 155 161 161 157 153 154 155 154 153 152 150 150 150 150 149 148 148 148 145 137 133
296 294 293 292 292 290 291 294 297 307 317 327 332 321 312 306 278 209 156 137 152 154 159 163 161 154 150 151 154 154 151 150 151 152 151 150 150 149 150 152 151 146 142
293 291 290 292 292 290 290 295 299 300 301 306 321 339 357 346 338 168 156 159 163 161 157 158 156 153 152 153 153 153 153 154 155 154 153 151 152 150 150 152 150 147 143
295 294 293 291 291 291 290 293 295 294 296 297 302 312 329 342 16 48 103 133 149 155 155 155 155 153 155 156 155 152 150 153 154 154 153 152 153 152 151 152 152 152 150
297 298 297 292 290 289 289 289 287 284 288 293 290 290 299 299 293 60 124 138 152 154 156 155 154 155 156 156 156 154 152 154 155 154 152 151 151 150 148 148 148 145 141
295 293 293 292 292 290 289 289 285 285 290 295 294 295 304 295 202 135 146 150 150 150 152 150 152 158 159 160 160 158 156 155 156 154 151 149 147 146 145 145 143 143 141
296 293 294 294 291 291 292 289 285 284 285 290 286 284 297 285 188 147 131 130 133 136 139 146 148 151 148 149 156 160 160 161 161 157 152 148 147 148 147 145 145 145 146
294 289 289 288 286 286 287 288 286 282 279 281 269 255 249 225 172 145 119 118 124 130 131 140 147 147 141 143 147 148 149 148 148 151 148 147 147 146 144 144 145 147 145
295 288 285 284 283 283 284 283 282 279 274 273 248 227 210 172 147 133 119 116 119 122 122 129 139 141 141 139 140 140 141 141 143 142 141 142 141 142 143 142 142 141 141
296 289 282 279 277 276 276 277 274 271 267 271 244 215 194 166 147 140 129 121 119 120 121 124 128 133 135 133 133 135 137 139 139 139 139 139 141 142 141 140 139 140 139
Height
1390 1386 1382 1378 1374 1371 1369 1367 1366 1365 1364 1365 1365 1367 1369 1371 1374 1377 1379 1382 1386 1390 1394 1398 1401 1406 1409 1413 1417 1421 1424 1427 1429 1432 1436 1440 1444 1449 1453 1455 1458 1461 1463
1385 1380 1376 1372 1368 1365 1363 1361 1360 1358 1357 1357 1358 1359 1360 1363 1366 1369 1371 1374 1378 1382 1385 1390 1394 1399 1403 1407 1411 1414 1418 1421 1424 1427 1431 1435 1438 1443 1447 1450 1453 1456 1458
1380 1375 1370 1366 1362 1360 1357 1355 1354 1352 1350 1350 1350 1351 1352 1355 1358 1361 1364 1367 1371 1374 1378 1382 1387 1392 1396 1401 1404 1408 1412 1416 1419 1423 1425 1430 1433 1438 1442 1445 1448 1451 1453
1374 1369 1364 1360 1357 1354 1351 1349 1347 1346 1344 1343 1343 1343 1345 1347 1350 1353 1356 1360 1363 1367 1371 1375 1380 1385 1389 1393 1398 1402 1406 1410 1414 1417 1421 1425 1428 1432 1437 1440 1443 1446 1449
1369 1364 1359 1355 1351 1349 1346 1344 1342 1340 1339 1338 1337 1337 1338 1340 1343 1346 1349 1352 1356 1359 1363 1367 1372 1377 1382 1387 1391 1395 1400 1404 1408 1412 1416 1419 1423 1427 1431 1434 1438 1441 1444
1364 1359 1354 1350 1346 1344 1341 1339 1337 1336 1334 1333 1332 1332 1333 1335 1338 1340 1343 1346 1349 1352 1355 1359 1365 1370 1375 1380 1385 1389 1394 1399 1403 1407 1410 1414 1418 1422 1426 1429 1433 1436 1438
1359 1354 1350 1345 1342 1339 1337 1335 1333 1331 1330 1329 1328 1328 1328 1330 1332 1335 1337 1339 1342 1345 1348 1352 1357 1363 1368 1374 1379 1384 1389 1394 1399 1402 1405 1408 1413 1417 1420 1424 1428 1431 1433
1355 1351 1346 1342 1338 1336 1333 1332 1330 1328 1327 1325 1325 1325 1324 1325 1327 1329 1331 1334 1336 1339 1342 1346 1351 1356 1361 1367 1372 1378 1383 1388 1393 1397 1401 1405 1410 1413 1417 1420 1423 1426 1429
1352 1347 1343 1339 1336 1333 1330 1328 1327 1325 1324 1322 1322 1321 1321 1321 1323 1324 1327 1328 1330 1333 1336 1341 1345 1350 1356 1361 1367 1372 1377 1383 1388 1393 1397 1401 1405 1409 1412 1416 1418 1422 1424
1348 1344 1340 1336 1333 1330 1328 1326 1324 1322 1321 1320 1319 1318 1318 1317 1319 1320 1322 1323 1325 1327 1331 1335 1340 1345 1351 1357 1361 1366 1371 1376 1382 1387 1392 1397 1401 1404 1408 1411 1414 1417 1420
1344 1340 1337 1334 1331 1328 1325 1323 1321 1319 1318 1317 1316 1315 1315 1315 1315 1316 1318 1320 1321 1323 1326 1331 1336 1342 1347 1352 1358 1362 1367 1372 1378 1383 1387 1392 1396 1400 1404 1408 1411 1414 1417
1341 1337 1334 1331 1329 1325 1322 1320 1319 1317 1315 1314 1313 1312 1312 1313 1313 1314 1315 1316 1318 1320 1323 1327 1332 1338 1343 1348 1353 1358 1364 1369 1374 1379 1384 1388 1392 1396 1400 1404 1408 1411 1414
1338 1334 1331 1328 1326 1323 1321 1319 1317 1315 1314 1312 1311 1310 1310 1310 1310 1311 1312 1313 1315 1317 1320 1325 1330 1335 1340 1345 1350 1356 1361 1366 1371 1375 1380 1384 1389 1393 1398 1401 1405 1408 1411
1335 1332 1329 1326 1323 1321 1320 1318 1316 1314 1312 1311 1310 1309 1308 1308 1308 1309 1309 1310 1312 1315 1318 1322 1327 1332 1337 1343 1348 1353 1358 1363 1368 1372 1377 1382 1386 1391 1395 1398 1402 1405 1408
1333 1330 1327 1324 1322 1319 1317 1316 1314 1313 1312 1310 1309 1308 1307 1306 1306 1307 1307 1308 1310 1312 1316 1321 1325 1330 1335 1340 1345 1350 1355 1360 1365 1370 1375 1379 1384 1388 1392 1396 1399 1402 1405
1330 1327 1325 1322 1320 1318 1315 1313 1312 1311 1310 1309 1308 1307 1306 1306 1305 1305 1305 1306 1308 1312 1316 1319 1324 1328 1333 1338 1342 1347 1353 1358 1363 1368 1372 1377 1381 1385 1389 1393 1397 1399 1402
1328 1326 1323 1320 1318 1316 1314 1312 1310 1309 1309 1308 1307 1306 1305 1304 1304 1303 1304 1305 1308 1312 1315 1319 1323 1327 1332 1336 1341 1346 1351 1356 1361 1366 1370 1375 1379 1383 1387 1390 1394 1397 1399
1326 1323 1321 1318 1316 1314 1313 1311 1310 1308 1306 1305 1306 1305 1304 1303 1303 1304 1305 1306 1308 1312 1315 1319 1322 1326 1330 1335 1340 1345 1350 1354 1359 1364 1368 1372 1377 1380 1384 1388 1391 1394 1397
1323 1321 1319 1317 1314 1313 1311 1309 1308 1307 1306 1304 1304 1304 1303 1303 1303 1304 1305 1306 1308 1311 1314 1318 1322 1326 1330 1334 1339 1343 1348 1352 1357 1362 1366 1370 1374 1378 1382 1386 1389 1392 1395
1320 1318 1316 1314 1313 1311 1309 1308 1307 1306 1305 1304 1303 1303 1302 1302 1302 1303 1305 1307 1309 1311 1314 1318 1322 1326 1330 1334 1338 1342 1346 1351 1356 1360 1364 1368 1372 1376 1380 1384 1387 1390 1393
1317 1315 1313 1312 1310 1309 1307 1306 1305 1304 1304 1303 1303 1303 1303 1303 1303 1304 1305 1307 1309 1312 1315 1318 1321 1325 1329 1333 1337 1341 1345 1349 1354 1358 1362 1366 1370 1374 1378 1382 1385 1388 1391
1314 1313 1311 1309 1308 1307 1306 1305 1304 1303 1302 1302 1302 1302 1303 1303 1304 1305 1306 1308 1310 1312 1315 1318 1321 1325 1328 1332 1335 1339 1343 1347 1352 1356 1360 1364 1368 1372 1376 1379 1383 1386 1389
1312 1310 1309 1308 1306 1305 1304 1303 1302 1302 1301 1301 1301 1302 1302 1303 1304 1305 1306 1307 1309 1312 1315 1318 1321 1324 1327 1331 1335 1339 1342 1346 1350 1354 1358 1362 1366 1370 1374 1377 1381 1384 1387
1311 1309 1307 1306 1305 1303 1302 1301 1301 1300 1300 1300 1300 1301 1302 1302 1303 1304 1306 1307 1309 1312 1314 1317 1320 1323 1327 1330 1334 1338 1342 1346 1350 1353 1357 1360 1364 1369 1372 1376 1379 1383 1386
1309 1307 1305 1304 1303 1302 1301 1300 1299 1299 1299 1299 1299 1300 1301 1302 1303 1304 1306 1307 1309 1311 1314 1317 1320 1323 1326 1330 1334 1338 1341 1345 1349 1352 1356 1360 1363 1367 1371 1375 1378 1382 1385
1306 1305 1303 1302 1301 1300 1299 1298 1298 1297 1297 1298 1299 1300 1301 1302 1303 1305 1306 1307 1309 1311 1314 1317 1320 1323 1326 1330 1333 1337 1341 1344 1348 1352 1355 1359 1363 1366 1370 1374 1378 1382 1385